Location: Farmers Union Landing
(35.3631°N, 88.2048°W)
Time: 03:55:58
(UTC+00:00)

Hubble Space Telescope - Visible Passes

Search period start: 26 May 2020 00:00
Search period end: 05 June 2020 00:00
Orbit: 536 x 540 km, 28.5° (Epoch: 23 May)

Date Brightness Start Highest point End Pass type
(mag) Time Alt. Az. Time Alt. Az. Time Alt. Az.
26 May 1.8 01:45:08 10° SW 01:48:43 28° S 01:51:31 14° ESE visible
26 May 3.0 03:25:52 10° WSW 03:26:52 16° WSW 03:26:52 16° WSW visible
27 May 1.8 01:34:21 10° WSW 01:37:59 30° S 01:41:31 10° ESE visible
27 May 2.7 03:15:11 10° WSW 03:16:50 19° SW 03:16:50 19° SW visible
28 May 1.8 01:23:33 10° WSW 01:27:14 31° S 01:30:54 10° ESE visible
28 May 2.4 03:04:33 10° WSW 03:06:44 22° SW 03:06:44 22° SW visible
29 May 2.3 02:53:57 10° WSW 02:56:35 22° SSW 02:56:35 22° SSW visible
30 May 2.4 02:43:24 10° WSW 02:46:23 20° SSW 02:46:23 20° SSW visible
31 May 2.5 02:32:55 10° WSW 02:35:42 17° SSW 02:36:10 17° S visible
01 Jun 2.8 02:22:32 10° SW 02:24:55 15° SSW 02:25:57 14° S visible
02 Jun 3.0 02:12:24 10° SW 02:14:08 12° SSW 02:15:45 10° S visible
